| time (UTC) | temp F | wind direction | speed knots | gust knots | rain 1hr in | rain 24hr in | rain mn in | humidity % | barometer mb |
| 20260503020903 | 52 | 126 | 1.7 | 7.0 | 0.00 | 0.18 | 0.18 | 1 | 1011.7 |
| 20260503020003 | 52 | 60 | 0.9 | 3.5 | 0.01 | 0.18 | 0.18 | 1 | 1011.5 |
| 20260503015403 | 52 | 94 | 0.9 | 3.5 | 0.01 | 0.18 | 0.18 | 1 | 1011.4 |
| 20260503014503 | 52 | 81 | 1.7 | 7.8 | 0.01 | 0.18 | 0.18 | 1 | 1011.6 |
| 20260503013603 | 52 | 19 | 0.9 | 7.8 | 0.01 | 0.18 | 0.18 | 1 | 1011.4 |
| 20260503012917 | 52 | 322 | 0.0 | 2.6 | 0.01 | 0.18 | 0.18 | 1 | 1011.5 |
| 20260503011803 | 52 | 1 | 1.7 | 4.3 | 0.02 | 0.18 | 0.18 | 1 | 1011.4 |
| 20260503010903 | 52 | 111 | 2.6 | 7.0 | 0.04 | 0.18 | 0.18 | 1 | 1011.7 |
| 20260503010004 | 52 | 61 | 1.7 | 7.8 | 0.06 | 0.17 | 0.17 | 1 | 1012.1 |
| 20260503005403 | 52 | 349 | 0.9 | 4.3 | 0.08 | 0.17 | 0.17 | 1 | 1011.9 |
| 20260503004503 | 53 | 328 | 0.9 | 4.3 | 0.12 | 0.17 | 0.17 | 1 | 1011.8 |
| 20260503003603 | 53 | 293 | 0.9 | 2.6 | 0.14 | 0.17 | 0.17 | 1 | 1012.5 |
| 20260503002703 | 53 | 291 | 0.9 | 2.6 | 0.17 | 0.17 | 0.17 | 1 | 1013.1 |
| 20260503001803 | 54 | 291 | 0.0 | 1.7 | 0.16 | 0.16 | 0.16 | 1 | 1013.3 |
| 20260503000903 | 54 | 0 | 0.0 | 0.0 | 0.14 | 0.14 | 0.14 | 1 | 1013.4 |
| 20260503000003 | 54 | 235 | 0.0 | 1.7 | 0.11 | 0.11 | 0.11 | 1 | 1013.9 |
| 20260502235403 | 54 | 235 | 0.0 | 6.1 | 0.09 | 0.09 | 0.09 | 1 | 1014.2 |
| 20260502234503 | 55 | 240 | 1.7 | 6.1 | 0.06 | 0.06 | 0.06 | 1 | 1014.4 |
| 20260502233817 | 55 | 235 | 3.5 | 8.7 | 0.03 | 0.03 | 0.03 | 1 | 1014.7 |
| 20260502232703 | 55 | 242 | 3.5 | 10.4 | 0.00 | 0.00 | 0.00 | 1 | 1014.8 |
| 20260502232017 | 55 | 313 | 0.9 | 3.5 | 0.00 | 0.00 | 0.00 | 1 | 1014.0 |
| 20260502230903 | 55 | 0 | 0.0 | 0.0 | 0.00 | 0.00 | 0.00 | 1 | 1014.0 |
| 20260502230218 | 55 | 0 | 0.0 | 0.0 | 0.00 | 0.00 | 0.00 | 1 | 1013.8 |
| 20260502225403 | 55 | 0 | 0.0 | 0.0 | 0.00 | 0.00 | 0.00 | 1 | 1013.8 |
| 20260502224717 | 55 | 96 | 0.0 | 0.9 | 0.00 | 0.00 | 0.00 | 1 | 1013.9 |
| 20260502223603 | 55 | 106 | 0.9 | 3.5 | 0.00 | 0.00 | 0.00 | 1 | 1014.0 |
| 20260502222703 | 55 | 134 | 1.7 | 7.8 | 0.00 | 0.00 | 0.00 | 1 | 1014.0 |
| 20260502221803 | 55 | 0 | 0.0 | 0.0 | 0.00 | 0.00 | 0.00 | 1 | 1013.7 |
| 20260502220903 | 55 | 0 | 0.0 | 0.0 | 0.00 | 0.00 | 0.00 | 1 | 1013.6 |
| 20260502220006 | 55 | 31 | 0.0 | 2.6 | 0.00 | 0.00 | 0.00 | 1 | 1013.7 |
| 20260502215403 | 55 | 18 | 0.9 | 4.3 | 0.00 | 0.00 | 0.00 | 1 | 1013.6 |
| 20260502214503 | 55 | 22 | 1.7 | 7.0 | 0.00 | 0.00 | 0.00 | 1 | 1013.6 |
| 20260502213603 | 56 | 17 | 1.7 | 4.3 | 0.00 | 0.00 | 0.00 | 1 | 1013.8 |
| 20260502212703 | 56 | 13 | 1.7 | 3.5 | 0.00 | 0.00 | 0.00 | 1 | 1014.0 |
| 20260502212017 | 56 | 9 | 1.7 | 4.3 | 0.00 | 0.00 | 0.00 | 1 | 1013.9 |
| 20260502210903 | 57 | 11 | 1.7 | 4.3 | 0.00 | 0.00 | 0.00 | 1 | 1014.0 |
| 20260502210004 | 57 | 356 | 1.7 | 3.5 | 0.00 | 0.00 | 0.00 | 1 | 1014.1 |
| 20260502205403 | 57 | 344 | 0.9 | 3.5 | 0.00 | 0.00 | 0.00 | 1 | 1014.2 |
| 20260502204503 | 57 | 14 | 0.9 | 3.5 | 0.00 | 0.00 | 0.00 | 1 | 1014.3 |
| 20260502203604 | 58 | 6 | 1.7 | 3.5 | 0.00 | 0.00 | 0.00 | 1 | 1014.5 |
| 20260502202703 | 58 | 344 | 1.7 | 3.5 | 0.00 | 0.00 | 0.00 | 1 | 1014.6 |
| 20260502201803 | 58 | 343 | 0.9 | 2.6 | 0.00 | 0.00 | 0.00 | 1 | 1014.6 |
| 20260502200903 | 59 | 342 | 0.9 | 2.6 | 0.00 | 0.00 | 0.00 | 4 | 1014.7 |
| 20260502200003 | 59 | 342 | 0.9 | 2.6 | 0.00 | 0.00 | 0.00 | 9 | 1014.9 |
| 20260502195403 | 59 | 340 | 0.9 | 3.5 | 0.00 | 0.00 | 0.00 | 12 | 1014.9 |
| 20260502194503 | 59 | 346 | 0.9 | 4.3 | 0.00 | 0.00 | 0.00 | 21 | 1014.8 |
| 20260502193603 | 60 | 13 | 0.9 | 3.5 | 0.00 | 0.00 | 0.00 | 30 | 1014.7 |
| 20260502192916 | 60 | 3 | 0.9 | 4.3 | 0.00 | 0.00 | 0.00 | 36 | 1014.7 |
| 20260502191803 | 60 | 341 | 0.9 | 3.5 | 0.00 | 0.00 | 0.00 | 47 | 1014.6 |
| 20260502190903 | 60 | 350 | 0.9 | 5.2 | 0.00 | 0.00 | 0.00 | 54 | 1014.6 |
| 20260502190004 | 61 | 353 | 0.9 | 5.2 | 0.00 | 0.00 | 0.00 | 61 | 1014.6 |
| 20260502185403 | 61 | 340 | 1.7 | 4.3 | 0.00 | 0.00 | 0.00 | 63 | 1014.7 |
| 20260502184503 | 61 | 348 | 0.9 | 4.3 | 0.00 | 0.00 | 0.00 | 65 | 1014.6 |
| 20260502183603 | 61 | 348 | 1.7 | 7.0 | 0.00 | 0.00 | 0.00 | 68 | 1014.7 |
| 20260502181803 | 62 | 334 | 0.9 | 6.1 | 0.00 | 0.00 | 0.00 | 68 | 1014.7 |
| 20260502180903 | 63 | 338 | 1.7 | 7.0 | 0.00 | 0.00 | 0.00 | 66 | 1014.8 |
| 20260502180218 | 63 | 326 | 1.7 | 7.0 | 0.00 | 0.00 | 0.00 | 65 | 1014.8 |
| 20260502163603 | 71 | 281 | 2.6 | 7.8 | 0.00 | 0.00 | 0.00 | 49 | 1015.4 |
| 20260502162917 | 72 | 291 | 2.6 | 7.8 | 0.00 | 0.00 | 0.00 | 50 | 1015.5 |
| 20260502161803 | 71 | 297 | 4.3 | 11.3 | 0.00 | 0.00 | 0.00 | 50 | 1015.4 |
| 20260502161122 | 71 | 283 | 4.3 | 9.6 | 0.00 | 0.00 | 0.00 | 50 | 1015.6 |
| 20260502152018 | 71 | 277 | 5.2 | 13.0 | 0.00 | 0.00 | 0.00 | 60 | 1016.0 |
| 20260502151118 | 71 | 286 | 4.3 | 8.7 | 0.00 | 0.00 | 0.00 | 62 | 1016.0 |
| 20260502122703 | 70 | 242 | 5.2 | 13.0 | 0.00 | 0.00 | 0.00 | 64 | 1017.2 |
| 20260502121803 | 71 | 249 | 7.0 | 11.3 | 0.00 | 0.00 | 0.00 | 62 | 1017.2 |
| 20260502120904 | 71 | 238 | 7.0 | 13.9 | 0.00 | 0.00 | 0.00 | 63 | 1017.3 |
| 20260502115403 | 72 | 255 | 4.3 | 11.3 | 0.00 | 0.00 | 0.00 | 61 | 1017.4 |
| 20260502114503 | 71 | 257 | 4.3 | 8.7 | 0.00 | 0.00 | 0.00 | 63 | 1017.5 |
| 20260502113818 | 71 | 264 | 5.2 | 13.0 | 0.00 | 0.00 | 0.00 | 62 | 1017.6 |
| 20260502112703 | 71 | 242 | 5.2 | 12.2 | 0.00 | 0.00 | 0.00 | 62 | 1017.7 |
| 20260502111803 | 71 | 255 | 4.3 | 12.2 | 0.00 | 0.00 | 0.00 | 60 | 1017.7 |
| 20260502111118 | 70 | 261 | 3.5 | 9.6 | 0.00 | 0.00 | 0.00 | 62 | 1017.8 |
| 20260502110004 | 70 | 253 | 3.5 | 7.8 | 0.00 | 0.00 | 0.00 | 61 | 1017.8 |
| 20260502105403 | 69 | 254 | 3.5 | 8.7 | 0.00 | 0.00 | 0.00 | 63 | 1017.8 |
| 20260502104503 | 68 | 251 | 4.3 | 9.6 | 0.00 | 0.00 | 0.00 | 64 | 1017.8 |
| 20260502103818 | 65 | 261 | 4.3 | 9.6 | 0.00 | 0.00 | 0.00 | 65 | 1017.9 |
| 20260502102703 | 64 | 249 | 1.7 | 7.0 | 0.00 | 0.00 | 0.00 | 65 | 1017.9 |
| 20260502101803 | 63 | 233 | 3.5 | 6.1 | 0.00 | 0.00 | 0.00 | 65 | 1017.7 |
| 20260502100903 | 63 | 232 | 2.6 | 4.3 | 0.00 | 0.00 | 0.00 | 64 | 1017.6 |
| 20260502090903 | 60 | 228 | 2.6 | 5.2 | 0.00 | 0.00 | 0.00 | 63 | 1018.1 |
| 20260502070903 | 63 | 182 | 2.6 | 6.1 | 0.00 | 0.00 | 0.00 | 55 | 1018.1 |
| 20260502070003 | 62 | 184 | 2.6 | 6.1 | 0.00 | 0.00 | 0.00 | 55 | 1018.1 |
| 20260502065403 | 62 | 184 | 2.6 | 6.1 | 0.00 | 0.00 | 0.00 | 57 | 1018.0 |
| 20260502064504 | 61 | 185 | 2.6 | 5.2 | 0.00 | 0.00 | 0.00 | 58 | 1018.0 |
| 20260502063603 | 60 | 184 | 2.6 | 5.2 | 0.00 | 0.00 | 0.00 | 59 | 1018.0 |
| 20260502062703 | 58 | 183 | 3.5 | 6.1 | 0.00 | 0.00 | 0.00 | 61 | 1018.0 |
| 20260502061803 | 57 | 184 | 2.6 | 6.1 | 0.00 | 0.00 | 0.00 | 62 | 1018.0 |
| 20260502060903 | 56 | 178 | 2.6 | 6.1 | 0.00 | 0.00 | 0.00 | 64 | 1018.0 |
| 20260502060003 | 55 | 164 | 3.5 | 6.1 | 0.00 | 0.00 | 0.00 | 66 | 1018.0 |
| 20260502055403 | 54 | 163 | 0.9 | 4.3 | 0.00 | 0.00 | 0.00 | 67 | 1018.0 |
| 20260502054503 | 52 | 163 | 0.9 | 4.3 | 0.00 | 0.00 | 0.00 | 68 | 1017.9 |
| 20260502053603 | 51 | 163 | 0.9 | 4.3 | 0.00 | 0.00 | 0.00 | 68 | 1017.8 |
| 20260502052703 | 51 | 163 | 0.9 | 3.5 | 0.00 | 0.00 | 0.00 | 68 | 1017.9 |
| 20260502051803 | 50 | 163 | 0.0 | 1.7 | 0.00 | 0.00 | 0.00 | 68 | 1018.0 |
| 20260502050903 | 50 | 163 | 0.9 | 3.5 | 0.00 | 0.00 | 0.00 | 68 | 1018.0 |
| 20260502050003 | 50 | 163 | 1.7 | 4.3 | 0.00 | 0.00 | 0.00 | 68 | 1018.0 |
| 20260502045403 | 50 | 163 | 1.7 | 5.2 | 0.00 | 0.00 | 0.00 | 68 | 1018.0 |
| 20260502044504 | 50 | 163 | 1.7 | 5.2 | 0.00 | 0.00 | 0.00 | 68 | 1018.0 |
| 20260502043603 | 50 | 163 | 1.7 | 3.5 | 0.00 | 0.00 | 0.00 | 68 | 1017.9 |
| 20260502042703 | 50 | 163 | 1.7 | 3.5 | 0.00 | 0.00 | 0.00 | 67 | 1017.9 |
| 20260502041803 | 51 | 163 | 2.6 | 4.3 | 0.00 | 0.00 | 0.00 | 67 | 1018.1 |
| 20260502040903 | 51 | 163 | 1.7 | 4.3 | 0.00 | 0.00 | 0.00 | 66 | 1018.1 |
| 20260502040004 | 51 | 163 | 1.7 | 4.3 | 0.00 | 0.00 | 0.00 | 65 | 1018.2 |
| 20260502035616 | 51 | 163 | 1.7 | 4.3 | 0.00 | 0.00 | 0.00 | 65 | 1018.1 |
| 20260502034503 | 52 | 163 | 1.7 | 4.3 | 0.00 | 0.00 | 0.00 | 65 | 1018.2 |
| 20260502033603 | 52 | 163 | 1.7 | 4.3 | 0.00 | 0.00 | 0.00 | 65 | 1018.3 |
| 20260502032703 | 52 | 165 | 2.6 | 6.1 | 0.00 | 0.00 | 0.00 | 65 | 1018.3 |
| 20260502031803 | 52 | 166 | 3.5 | 6.1 | 0.00 | 0.00 | 0.00 | 65 | 1018.4 |
| 20260502031117 | 52 | 166 | 2.6 | 5.2 | 0.00 | 0.00 | 0.00 | 65 | 1018.4 |
| 20260502030003 | 52 | 167 | 2.6 | 5.2 | 0.00 | 0.00 | 0.00 | 64 | 1018.5 |
| 20260502025618 | 52 | 167 | 1.7 | 5.2 | 0.00 | 0.00 | 0.00 | 64 | 1018.5 |
| 20260502024717 | 53 | 167 | 2.6 | 4.3 | 0.00 | 0.00 | 0.00 | 64 | 1018.5 |
| 20260502023603 | 53 | 168 | 1.7 | 4.3 | 0.00 | 0.00 | 0.00 | 63 | 1018.6 |
| 20260502022703 | 53 | 169 | 1.7 | 5.2 | 0.00 | 0.00 | 0.00 | 63 | 1018.6 |
| 20260502021803 | 53 | 169 | 0.9 | 4.3 | 0.00 | 0.00 | 0.00 | 63 | 1018.7 |